Location: Remedello Sotto
(45.2500°N, 10.3667°E)
Time: 11:31:34
(UTC+00:00)

SL-08 R/B - Pass Details

Date: 03 February 2023
Orbit: 672 x 737 km, 98.5° (Epoch: 21 March)

Event Time Altitude Azimuth Distance (km) Brightness Sun altitude
Rises 16:47:03 0° 16° (NNE) 3,175 6.4 -3.9°
Reaches altitude 10° 16:49:21 10° 19° (NNE) 2,252 5.6 -4.3°
Maximum altitude 16:54:18 69° 103° (ESE) 792 3.4 -5.1°
Drops below altitude 10° 16:59:13 10° 186° (S) 2,235 6.3 -6.0°
Sets 17:01:29 0° 189° (S) 3,149 7.1 -6.3°
